Cuero, Texas, United States (77954)
Lat: 29.09N, Lon: 97.29W
Wx Zone: TXZ224
Local Info
Past Weather Observations for Today

NOTE: This archive is for the closest National Weather Service station to Cuero. Information may differ from the station used for current weather conditions.

Click here for Long-term Archive

Time Weather Temperature Dewpoint Humidity Pressure Winds Precip Visibility
21:51
Overcast
Fog And Mist
75°F / 24°C 75°F / 24°C 100% 29.59 in
(1002 mb)
SE 9.2 mph
(SE 15 kph)
- 2 1/2SM
21:38
Overcast
Fog And Mist
73°F / 23°C 73°F / 23°C 100% 29.59 in
(1002 mb)
SE 6.9 mph
(SE 11 kph)
- 2 1/2SM
21:23
Overcast
Fog And Mist
73°F / 23°C 73°F / 23°C 100% 29.59 in
(1002 mb)
E 8.1 mph
(E 13 kph)
- 3SM
21:14
Overcast
Fog And Mist
73°F / 23°C 73°F / 23°C 100% 29.59 in
(1002 mb)
E 9.2 mph
(E 15 kph)
- 2 1/2SM
20:51
Overcast
Fog And Mist
72°F / 22°C 72°F / 22°C 100% 29.59 in
(1002 mb)
ENE 9.2 mph
(ENE 15 kph)
- 3SM
19:51
Overcast
Fog And Mist
72°F / 22°C 72°F / 22°C 100% 29.59 in
(1002 mb)
ENE 11.5 mph
(ENE 19 kph)
- 4SM
19:42
Overcast
Fog And Mist
72°F / 22°C 72°F / 22°C 100% 29.59 in
(1002 mb)
ENE 11.5 mph
(ENE 19 kph)
- 3SM
19:14
Overcast
Fog And Mist
75°F / 24°C 75°F / 24°C 100% 29.59 in
(1002 mb)
ESE 10.4 mph
(ESE 17 kph)
- 1 3/4SM
18:58
Overcast
Fog And Mist
75°F / 24°C 75°F / 24°C 100% 29.59 in
(1002 mb)
ESE 11.5 mph
(ESE 19 kph)
- 1 1/4SM
18:51
Overcast
Fog And Mist
77°F / 25°C 77°F / 25°C 100% 29.59 in
(1002 mb)
ESE 11.5 mph
(ESE 19 kph)
- 1 1/4SM
17:51
Overcast
Fog And Mist
77°F / 25°C 77°F / 25°C 100% 29.56 in
(1001 mb)
SE 9.2 mph
(SE 15 kph)
- 1 3/4SM
17:48
Overcast
Fog And Mist
77°F / 25°C 77°F / 25°C 100% 29.56 in
(1001 mb)
SE 8.1 mph
(SE 13 kph)
- 1 3/4SM
17:38
Overcast
Fog And Mist
77°F / 25°C 77°F / 25°C 100% 29.56 in
(1001 mb)
SE 9.2 mph
(SE 15 kph)
- 1 1/2SM
17:27
Overcast
Fog And Mist
77°F / 25°C 77°F / 25°C 100% 29.56 in
(1001 mb)
SE 10.4 mph
(SE 17 kph)
- 1 1/4SM
16:51
Overcast
Fog And Mist
77°F / 25°C 77°F / 25°C 100% 29.59 in
(1002 mb)
SSE 12.7 mph
(SSE 20 kph)
- 3/4SM
16:35
Overcast
Fog And Mist
75°F / 24°C 75°F / 24°C 100% 29.59 in
(1002 mb)
SE 12.7 mph
(SE 20 kph)
- 3/4SM
16:28
Overcast
Fog And Mist
75°F / 24°C 75°F / 24°C 100% 29.59 in
(1002 mb)
SSE 16.1 mph
(SSE 26 kph)
- 1SM
16:19
Overcast
Fog And Mist
75°F / 24°C 75°F / 24°C 100% 29.59 in
(1002 mb)
SE 12.7 mph
(SE 20 kph)
- 1 1/2SM
16:09
Overcast
Fog And Mist
75°F / 24°C 75°F / 24°C 100% 29.59 in
(1002 mb)
SE 13.8 mph
(SE 22 kph)
- 1 1/2SM
15:51
Overcast
Fog And Mist
77°F / 25°C 77°F / 25°C 100% 29.62 in
(1003 mb)
SE 12.7 mph
(SE 20 kph)
0.00 in
(0.00 mm)
1 1/4SM
15:44
Overcast
Light Rain
77°F / 25°C 77°F / 25°C 100% 29.62 in
(1003 mb)
SE 15 mph
(SE 24 kph)
0.00 in
(0.00 mm)
1 3/4SM
15:34
Overcast
Fog And Mist
79°F / 26°C 77°F / 25°C 94% 29.62 in
(1003 mb)
SE 11.5 mph
(SE 19 kph)
- 4SM
14:51
Overcast
Fog And Mist
79°F / 26°C 75°F / 24°C 89% 29.65 in
(1004 mb)
SE 11.5 mph
(SE 19 kph)
- 5SM
14:29
Overcast
Fog And Mist
79°F / 26°C 75°F / 24°C 89% 29.65 in
(1004 mb)
SE 13.8 mph
(SE 22 kph)
- 5SM
13:51
Overcast
Fog And Mist
81°F / 27°C 75°F / 24°C 84% 29.65 in
(1004 mb)
SE 15 mph
(SE 24 kph)
- 6SM
12:51
Overcast
Hazy
81°F / 27°C 75°F / 24°C 84% 29.68 in
(1005 mb)
ESE 11.5 mph
(ESE 19 kph)
- 6SM
12:29
Mostly Cloudy
Hazy
82°F / 28°C 75°F / 24°C 79% 29.68 in
(1005 mb)
ESE 11.5 mph
(ESE 19 kph)
- 6SM
11:51
Partly Cloudy
84°F / 29°C 77°F / 25°C 79% 29.68 in
(1005 mb)
SSE 11.5 mph
(SSE 19 kph)
- 7SM
11:18
Mostly Cloudy
82°F / 28°C 75°F / 24°C 79% 29.71 in
(1006 mb)
SE 10.4 mph
(SE 17 kph)
- 7SM
10:51
Partly Cloudy
82°F / 28°C 73°F / 23°C 74% 29.71 in
(1006 mb)
ESE 13.8 mph
(ESE 22 kph)
- 7SM
10:40
Mostly Cloudy
82°F / 28°C 75°F / 24°C 79% 29.71 in
(1006 mb)
SE 11.5 mph
(SE 19 kph)
- 7SM
10:01
Overcast
Hazy
79°F / 26°C 73°F / 23°C 84% 29.71 in
(1006 mb)
SE 10.4 mph
(SE 17 kph)
- 6SM
09:51
Overcast
Hazy
79°F / 26°C 73°F / 23°C 84% 29.71 in
(1006 mb)
SE 8.1 mph
(SE 13 kph)
- 5SM
09:49
Overcast
Fog And Mist
79°F / 26°C 75°F / 24°C 89% 29.71 in
(1006 mb)
SE 9.2 mph
(SE 15 kph)
- 5SM
09:12
Overcast
Fog And Mist
77°F / 25°C 75°F / 24°C 94% 29.71 in
(1006 mb)
E 6.9 mph
(E 11 kph)
- 4SM
08:51
Overcast
Fog And Mist
75°F / 24°C 75°F / 24°C 100% 29.71 in
(1006 mb)
E 6.9 mph
(E 11 kph)
- 3SM
08:47
Overcast
Fog And Mist
75°F / 24°C 75°F / 24°C 100% 29.71 in
(1006 mb)
E 4.6 mph
(E 7 kph)
- 3SM
08:27
Overcast
Fog And Mist
75°F / 24°C 75°F / 24°C 100% 29.71 in
(1006 mb)
ENE 8.1 mph
(ENE 13 kph)
- 2SM
08:20
Overcast
Fog And Mist
75°F / 24°C 75°F / 24°C 100% 29.71 in
(1006 mb)
ENE 8.1 mph
(ENE 13 kph)
- 1 3/4SM
07:56
Mostly Cloudy
Fog And Mist
75°F / 24°C 75°F / 24°C 100% 29.71 in
(1006 mb)
ENE 4.6 mph
(ENE 7 kph)
- 2SM
07:51
Partly Cloudy
Fog And Mist
75°F / 24°C 75°F / 24°C 100% 29.71 in
(1006 mb)
NE 5.8 mph
(NE 9 kph)
- 1 3/4SM
07:23
Partly Cloudy
Fog And Mist
75°F / 24°C 75°F / 24°C 100% 29.71 in
(1006 mb)
ENE 5.8 mph
(ENE 9 kph)
- 1 3/4SM
07:13
Mostly Cloudy
Fog And Mist
75°F / 24°C 75°F / 24°C 100% 29.74 in
(1007 mb)
E 4.6 mph
(E 7 kph)
- 2SM
06:51
Overcast
Fog And Mist
73°F / 23°C 73°F / 23°C 100% 29.74 in
(1007 mb)
SW 4.6 mph
(SW 7 kph)
- 2 1/2SM
06:38
Overcast
Fog And Mist
73°F / 23°C 73°F / 23°C 100% 29.74 in
(1007 mb)
NW 3.5 mph
(NW 6 kph)
- 2SM
06:26
Overcast
Fog And Mist
73°F / 23°C 73°F / 23°C 100% 29.71 in
(1006 mb)
N 4.6 mph
(N 7 kph)
- 1 3/4SM
06:10
Overcast
Fog And Mist
73°F / 23°C 73°F / 23°C 100% 29.68 in
(1005 mb)
NE 6.9 mph
(NE 11 kph)
- 1 3/4SM
05:51
Overcast
Fog And Mist
73°F / 23°C 73°F / 23°C 100% 29.71 in
(1006 mb)
Calm - 4SM
05:32
Overcast
Fog And Mist
73°F / 23°C 73°F / 23°C 100% 29.71 in
(1006 mb)
Calm - 3SM
05:08
Overcast
Fog And Mist
73°F / 23°C 73°F / 23°C 100% 29.71 in
(1006 mb)
Calm - 3SM
04:51
Overcast
Fog And Mist
73°F / 23°C 73°F / 23°C 100% 29.71 in
(1006 mb)
Calm - 2 1/2SM
04:39
Overcast
Fog And Mist
73°F / 23°C 73°F / 23°C 100% 29.68 in
(1005 mb)
Calm - 3SM
04:25
Mostly Cloudy
Fog And Mist
73°F / 23°C 73°F / 23°C 100% 29.68 in
(1005 mb)
Calm - 2 1/2SM
03:51
Overcast
Fog And Mist
73°F / 23°C 73°F / 23°C 100% 29.71 in
(1006 mb)
SSE 4.6 mph
(SSE 7 kph)
- 4SM
03:03
Overcast
Fog And Mist
73°F / 23°C 73°F / 23°C 100% 29.71 in
(1006 mb)
Calm - 4SM
02:51
Overcast
Fog And Mist
73°F / 23°C 73°F / 23°C 100% 29.71 in
(1006 mb)
S 3.5 mph
(S 6 kph)
- 4SM
02:41
Overcast
Fog And Mist
73°F / 23°C 73°F / 23°C 100% 29.71 in
(1006 mb)
Calm - 4SM
01:51
Overcast
Fog And Mist
73°F / 23°C 73°F / 23°C 100% 29.71 in
(1006 mb)
S 3.5 mph
(S 6 kph)
- 4SM
01:07
Overcast
Fog And Mist
73°F / 23°C 73°F / 23°C 100% 29.71 in
(1006 mb)
SSE 3.5 mph
(SSE 6 kph)
- 3SM
01:00
Overcast
Fog And Mist
73°F / 23°C 73°F / 23°C 100% 29.71 in
(1006 mb)
S 3.5 mph
(S 6 kph)
- 2 1/2SM
00:51
Overcast
Fog And Mist
73°F / 23°C 73°F / 23°C 100% 29.71 in
(1006 mb)
S 4.6 mph
(S 7 kph)
- 3SM
00:37
Overcast
Fog And Mist
72°F / 22°C 72°F / 22°C 100% 29.74 in
(1007 mb)
SSE 5.8 mph
(SSE 9 kph)
- 3SM
00:22
Overcast
Fog And Mist
72°F / 22°C 72°F / 22°C 100% 29.71 in
(1006 mb)
SSE 5.8 mph
(SSE 9 kph)
- 2SM
00:16
Overcast
Fog And Mist
72°F / 22°C 72°F / 22°C 100% 29.74 in
(1007 mb)
SSE 4.6 mph
(SSE 7 kph)
- 1 1/4SM
00:00
Obscured
Fog And Mist
72°F / 22°C 72°F / 22°C 100% 29.74 in
(1007 mb)
SSE 6.9 mph
(SSE 11 kph)
- 3/4SM
Time Weather Temperature Dewpoint Humidity Pressure Winds Precip Visibility


Weather for websites

WeatherForYou.com, LLC is not responsible for any damages or problems caused by this service. Current weather conditions are obtained from the closest station including government and personal stations which may have varying degrees of accuracy. Weather forecasts are derived from the NOAA NDFD. Like all things, this site belongs to Jesus Christ... He just trusts us to maintain it. If you have any questions or comments email webmaster@weatherforyou.com

Copyright © 2015, WeatherForYou.com LLC. All rights reserved.